| time (UTC) | temp C | wind direction | speed KPH | gust KPH | rain 1hr cm | rain 24hr cm | rain mn cm | humidity % | barometer mb |
| 20260507023140 | 7 | 45 | 0.0 | 0.0 | 0.05 | 0.20 | 0.00 | 93 | 1008.5 |
| 20260507022140 | 7 | 135 | 0.0 | 0.0 | 0.05 | 0.20 | 0.00 | 93 | 1008.4 |
| 20260507021140 | 7 | 67 | 0.0 | 0.0 | 0.05 | 0.20 | 0.00 | 93 | 1008.3 |
| 20260507020140 | 7 | 292 | 0.0 | 0.0 | 0.10 | 0.20 | 0.00 | 93 | 1008.3 |
| 20260507015140 | 7 | 247 | 0.0 | 0.0 | 0.10 | 0.20 | 0.00 | 93 | 1008.2 |
| 20260507014140 | 7 | 247 | 0.0 | 0.0 | 0.10 | 0.20 | 0.00 | 93 | 1008.0 |
| 20260507013140 | 7 | 67 | 0.0 | 0.0 | 0.05 | 0.15 | 0.00 | 93 | 1008.2 |
| 20260507012140 | 7 | 45 | 0.0 | 0.0 | 0.10 | 0.15 | 0.00 | 93 | 1008.0 |
| 20260507011140 | 7 | 225 | 0.0 | 0.0 | 0.10 | 0.15 | 0.00 | 93 | 1008.0 |
| 20260507010140 | 7 | 225 | 0.0 | 0.0 | 0.05 | 0.10 | 0.00 | 92 | 1008.0 |
| 20260507005140 | 7 | 225 | 0.0 | 0.0 | 0.05 | 0.10 | 0.00 | 92 | 1008.0 |
| 20260507004140 | 8 | 180 | 0.0 | 0.0 | 0.05 | 0.10 | 0.00 | 92 | 1008.1 |
| 20260507003140 | 8 | 202 | 0.0 | 0.0 | 0.05 | 0.10 | 0.00 | 92 | 1008.1 |
| 20260507002140 | 8 | 247 | 0.0 | 0.0 | 0.00 | 0.05 | 0.00 | 92 | 1008.2 |
| 20260507001140 | 8 | 247 | 0.0 | 0.0 | 0.00 | 0.05 | 0.00 | 92 | 1008.0 |
| 20260507000140 | 8 | 225 | 0.0 | 0.0 | 0.00 | 0.05 | 0.00 | 92 | 1008.1 |
| 20260506235140 | 8 | 225 | 0.0 | 0.0 | 0.00 | 0.05 | 0.00 | 92 | 1008.0 |
| 20260506234140 | 8 | 180 | 0.0 | 0.0 | 0.00 | 0.05 | 0.00 | 92 | 1008.1 |
| 20260506233140 | 8 | 247 | 0.0 | 0.0 | 0.00 | 0.05 | 0.00 | 92 | 1007.9 |
| 20260506232140 | 8 | 90 | 0.0 | 0.0 | 0.00 | 0.05 | 0.00 | 92 | 1007.8 |
| 20260506231141 | 8 | 202 | 0.0 | 0.0 | 0.00 | 0.05 | 0.00 | 92 | 1007.9 |
| 20260506230140 | 8 | 202 | 0.0 | 0.0 | 0.00 | 0.05 | 0.00 | 92 | 1007.9 |
| 20260506225140 | 8 | 225 | 0.0 | 0.0 | 0.00 | 0.05 | 0.00 | 92 | 1007.8 |
| 20260506224140 | 9 | 135 | 0.0 | 0.0 | 0.00 | 0.05 | 0.00 | 92 | 1007.7 |
| 20260506223140 | 9 | 270 | 0.0 | 0.0 | 0.00 | 0.05 | 0.00 | 91 | 1007.7 |
| 20260506222140 | 9 | 270 | 0.0 | 0.0 | 0.00 | 0.05 | 0.00 | 91 | 1007.5 |
| 20260506221140 | 9 | 135 | 0.0 | 0.0 | 0.00 | 0.05 | 0.00 | 91 | 1007.4 |
| 20260506220140 | 9 | 112 | 0.0 | 0.0 | 0.00 | 0.05 | 0.00 | 91 | 1007.3 |
| 20260506215140 | 10 | 247 | 0.0 | 0.0 | 0.05 | 0.15 | 0.00 | 91 | 1007.4 |
| 20260506214140 | 10 | 135 | 0.0 | 0.0 | 0.05 | 0.15 | 0.00 | 91 | 1007.2 |
| 20260506213140 | 10 | 247 | 0.0 | 0.0 | 0.05 | 0.15 | 0.00 | 90 | 1007.2 |
| 20260506212140 | 10 | 157 | 0.0 | 0.0 | 0.05 | 0.15 | 0.00 | 91 | 1007.3 |
| 20260506211140 | 10 | 157 | 0.0 | 0.0 | 0.05 | 0.15 | 0.00 | 91 | 1007.1 |
| 20260506210140 | 10 | 157 | 0.0 | 0.0 | 0.00 | 0.10 | 0.00 | 91 | 1007.0 |
| 20260506205140 | 10 | 157 | 0.0 | 0.0 | 0.00 | 0.10 | 0.00 | 91 | 1007.2 |
| 20260506204140 | 10 | 157 | 0.0 | 0.0 | 0.00 | 0.10 | 0.00 | 90 | 1007.0 |
| 20260506203140 | 10 | 157 | 0.0 | 0.0 | 0.00 | 0.10 | 0.00 | 90 | 1006.9 |
| 20260506202140 | 10 | 157 | 0.0 | 0.0 | 0.00 | 0.10 | 0.00 | 90 | 1006.8 |
| 20260506201140 | 10 | 157 | 0.0 | 0.0 | 0.00 | 0.10 | 0.00 | 90 | 1006.8 |
| 20260506200140 | 10 | 225 | 0.0 | 0.0 | 0.00 | 0.10 | 0.00 | 89 | 1006.8 |
| 20260506195140 | 10 | 225 | 0.0 | 0.0 | 0.00 | 0.10 | 0.00 | 89 | 1006.8 |
| 20260506194140 | 10 | 67 | 0.0 | 0.0 | 0.00 | 0.10 | 0.00 | 89 | 1006.7 |
| 20260506193141 | 11 | 157 | 0.0 | 0.0 | 0.00 | 0.10 | 0.00 | 88 | 1006.7 |
| 20260506192141 | 11 | 202 | 0.0 | 0.0 | 0.00 | 0.10 | 0.00 | 87 | 1006.6 |
| 20260506191141 | 11 | 202 | 0.0 | 0.0 | 0.00 | 0.10 | 0.00 | 86 | 1006.5 |
| 20260506190141 | 11 | 292 | 0.0 | 0.0 | 0.00 | 0.10 | 0.00 | 86 | 1006.6 |
| 20260506185141 | 11 | 202 | 0.0 | 0.0 | 0.00 | 0.10 | 0.00 | 85 | 1006.4 |
| 20260506184141 | 12 | 112 | 0.0 | 0.0 | 0.00 | 0.10 | 0.00 | 84 | 1006.4 |
| 20260506183141 | 12 | 0 | 0.0 | 0.0 | 0.00 | 0.10 | 0.00 | 82 | 1006.1 |
| 20260506182141 | 12 | 90 | 0.0 | 0.0 | 0.00 | 0.10 | 0.00 | 81 | 1006.2 |
| 20260506181141 | 12 | 90 | 0.0 | 0.0 | 0.00 | 0.10 | 0.00 | 80 | 1006.0 |
| 20260506180141 | 13 | 90 | 0.0 | 0.0 | 0.00 | 0.10 | 0.00 | 80 | 1006.0 |
| 20260506175141 | 13 | 45 | 0.0 | 0.0 | 0.00 | 0.10 | 0.00 | 78 | 1006.0 |
| 20260506174141 | 13 | 180 | 0.0 | 0.0 | 0.00 | 0.10 | 0.00 | 76 | 1005.9 |
| 20260506173141 | 13 | 202 | 0.0 | 0.0 | 0.00 | 0.10 | 0.00 | 74 | 1005.8 |
| 20260506172141 | 13 | 202 | 0.0 | 0.0 | 0.00 | 0.10 | 0.00 | 72 | 1005.7 |
| 20260506171141 | 13 | 202 | 0.0 | 0.0 | 0.00 | 0.10 | 0.00 | 71 | 1005.8 |
| 20260506170141 | 13 | 225 | 0.0 | 0.0 | 0.00 | 0.10 | 0.00 | 71 | 1005.8 |
| 20260506165141 | 14 | 292 | 0.0 | 0.0 | 0.00 | 0.10 | 0.00 | 72 | 1005.7 |
| 20260506164141 | 14 | 247 | 0.0 | 0.0 | 0.00 | 0.10 | 0.00 | 71 | 1005.8 |
| 20260506163141 | 15 | 247 | 0.0 | 0.0 | 0.00 | 0.10 | 0.00 | 69 | 1005.8 |
| 20260506162141 | 15 | 270 | 0.0 | 0.0 | 0.00 | 0.10 | 0.00 | 67 | 1005.9 |
| 20260506161141 | 15 | 225 | 0.0 | 0.0 | 0.00 | 0.10 | 0.00 | 69 | 1006.1 |
| 20260506160141 | 15 | 135 | 0.0 | 0.0 | 0.00 | 0.10 | 0.00 | 67 | 1006.0 |
| 20260506155141 | 16 | 67 | 0.0 | 0.0 | 0.00 | 0.20 | 0.00 | 66 | 1006.2 |
| 20260506154141 | 16 | 135 | 0.0 | 0.0 | 0.00 | 0.20 | 0.00 | 64 | 1006.2 |
| 20260506153141 | 16 | 225 | 0.0 | 0.0 | 0.00 | 0.20 | 0.00 | 64 | 1006.2 |
| 20260506152141 | 17 | 247 | 0.0 | 0.0 | 0.00 | 0.20 | 0.00 | 62 | 1006.2 |
| 20260506151141 | 17 | 247 | 0.0 | 0.0 | 0.00 | 0.20 | 0.00 | 63 | 1006.2 |
| 20260506150141 | 17 | 247 | 0.0 | 0.0 | 0.00 | 0.20 | 0.00 | 62 | 1006.1 |
| 20260506145141 | 17 | 247 | 0.0 | 0.0 | 0.00 | 0.46 | 0.00 | 64 | 1006.0 |
| 20260506144141 | 17 | 270 | 0.0 | 0.0 | 0.00 | 0.46 | 0.00 | 63 | 1006.1 |
| 20260506143141 | 17 | 202 | 0.0 | 0.0 | 0.00 | 0.46 | 0.00 | 63 | 1006.0 |
| 20260506142141 | 17 | 270 | 0.0 | 0.0 | 0.00 | 0.46 | 0.00 | 63 | 1006.2 |
| 20260506141141 | 17 | 202 | 0.0 | 0.0 | 0.00 | 0.46 | 0.00 | 62 | 1006.2 |
| 20260506140141 | 17 | 45 | 0.0 | 0.0 | 0.00 | 0.46 | 0.00 | 62 | 1006.3 |
| 20260506135141 | 17 | 270 | 0.0 | 0.0 | 0.00 | 0.56 | 0.00 | 63 | 1006.3 |
| 20260506134141 | 17 | 67 | 0.0 | 0.0 | 0.00 | 0.56 | 0.00 | 65 | 1006.4 |
| 20260506133141 | 17 | 157 | 0.0 | 0.0 | 0.00 | 0.56 | 0.00 | 65 | 1006.3 |
| 20260506132141 | 17 | 225 | 0.0 | 0.0 | 0.00 | 0.56 | 0.00 | 63 | 1006.3 |
| 20260506131141 | 17 | 225 | 0.0 | 0.0 | 0.00 | 0.56 | 0.00 | 63 | 1006.1 |
| 20260506130141 | 17 | 247 | 0.0 | 0.0 | 0.00 | 0.56 | 0.00 | 64 | 1006.2 |
| 20260506125141 | 17 | 270 | 0.0 | 0.0 | 0.00 | 0.56 | 0.00 | 63 | 1006.1 |
| 20260506124142 | 17 | 247 | 0.0 | 0.0 | 0.00 | 0.56 | 0.00 | 65 | 1006.1 |
| 20260506123141 | 17 | 247 | 0.0 | 0.0 | 0.00 | 0.56 | 0.00 | 68 | 1006.2 |
| 20260506122141 | 17 | 45 | 0.0 | 0.0 | 0.00 | 0.56 | 0.00 | 67 | 1006.2 |
| 20260506121141 | 17 | 90 | 0.0 | 0.0 | 0.00 | 0.56 | 0.00 | 66 | 1006.2 |
| 20260506120141 | 17 | 180 | 0.0 | 0.0 | 0.00 | 0.56 | 0.00 | 69 | 1006.4 |
| 20260506115142 | 17 | 225 | 0.0 | 0.0 | 0.00 | 0.56 | 0.00 | 68 | 1006.4 |
| 20260506114142 | 17 | 225 | 0.0 | 0.0 | 0.00 | 0.56 | 0.00 | 68 | 1006.4 |
| 20260506113142 | 16 | 157 | 0.0 | 0.0 | 0.00 | 0.56 | 0.00 | 68 | 1006.5 |
| 20260506112142 | 17 | 225 | 0.0 | 0.0 | 0.00 | 0.56 | 0.00 | 67 | 1006.6 |
| 20260506111142 | 18 | 270 | 0.0 | 0.0 | 0.00 | 0.56 | 0.00 | 65 | 1006.5 |
| 20260506110142 | 19 | 202 | 0.0 | 0.0 | 0.00 | 0.56 | 0.00 | 62 | 1006.5 |
| 20260506105142 | 20 | 225 | 0.0 | 0.0 | 0.00 | 0.56 | 0.00 | 62 | 1006.3 |
| 20260506104142 | 20 | 202 | 0.0 | 0.0 | 0.00 | 0.56 | 0.00 | 66 | 1006.1 |
| 20260506103142 | 19 | 202 | 0.0 | 0.0 | 0.00 | 0.56 | 0.00 | 68 | 1006.2 |
| 20260506102142 | 17 | 135 | 0.0 | 0.0 | 0.00 | 0.56 | 0.00 | 70 | 1006.1 |
| 20260506101142 | 18 | 225 | 0.0 | 0.0 | 0.00 | 0.56 | 0.00 | 68 | 1006.0 |
| 20260506100142 | 18 | 202 | 0.0 | 0.0 | 0.00 | 0.56 | 0.00 | 71 | 1006.2 |
| 20260506095142 | 18 | 112 | 0.0 | 0.0 | 0.00 | 0.56 | 0.00 | 71 | 1006.0 |
| 20260506094142 | 17 | 225 | 0.0 | 0.0 | 0.00 | 0.56 | 0.00 | 76 | 1006.1 |
| 20260506093142 | 16 | 247 | 0.0 | 0.0 | 0.00 | 0.56 | 0.00 | 77 | 1006.0 |
| 20260506092142 | 15 | 157 | 0.0 | 0.0 | 0.00 | 0.56 | 0.00 | 78 | 1005.9 |
| 20260506091142 | 16 | 202 | 0.0 | 0.0 | 0.00 | 0.56 | 0.00 | 77 | 1005.8 |
| 20260506090142 | 17 | 90 | 0.0 | 0.0 | 0.00 | 0.56 | 0.00 | 76 | 1005.8 |
| 20260506085142 | 17 | 180 | 0.0 | 0.0 | 0.00 | 0.56 | 0.00 | 75 | 1005.7 |
| 20260506084142 | 17 | 180 | 0.0 | 0.0 | 0.00 | 0.56 | 0.00 | 78 | 1005.4 |
| 20260506083142 | 16 | 202 | 0.0 | 0.0 | 0.00 | 0.56 | 0.00 | 77 | 1005.2 |
| 20260506082142 | 16 | 225 | 0.0 | 0.0 | 0.00 | 0.56 | 0.00 | 81 | 1005.2 |
| 20260506081142 | 15 | 225 | 0.0 | 0.0 | 0.00 | 0.56 | 0.00 | 82 | 1005.1 |
| 20260506080142 | 15 | 112 | 0.0 | 0.0 | 0.00 | 0.56 | 0.00 | 84 | 1005.0 |
| 20260506073143 | 13 | 247 | 0.0 | 0.0 | 0.00 | 0.56 | 0.00 | 92 | 1005.3 |
| 20260506072142 | 13 | 270 | 0.0 | 0.0 | 0.00 | 0.56 | 0.00 | 93 | 1005.2 |
| 20260506071142 | 12 | 247 | 0.0 | 0.0 | 0.00 | 0.56 | 0.00 | 93 | 1005.2 |
| 20260506070142 | 11 | 247 | 0.0 | 0.0 | 0.00 | 0.56 | 0.00 | 94 | 1005.1 |
| 20260506062142 | 10 | 225 | 0.0 | 0.0 | 0.00 | 0.56 | 0.00 | 93 | 1005.1 |
| 20260506061142 | 11 | 247 | 0.0 | 0.0 | 0.00 | 0.56 | 0.00 | 93 | 1005.1 |
| 20260506060142 | 11 | 270 | 0.0 | 0.0 | 0.00 | 0.56 | 0.00 | 93 | 1005.1 |
| 20260506051142 | 10 | 225 | 0.0 | 0.0 | 0.00 | 0.56 | 0.00 | 93 | 1005.3 |
| 20260506050142 | 10 | 225 | 0.0 | 0.0 | 0.00 | 0.56 | 0.00 | 93 | 1005.1 |
| 20260506044143 | 10 | 202 | 0.0 | 0.0 | 0.00 | 0.56 | 0.00 | 93 | 1005.0 |
| 20260506043142 | 10 | 202 | 0.0 | 0.0 | 0.00 | 0.56 | 0.00 | 93 | 1005.1 |
| 20260506042143 | 10 | 225 | 0.0 | 0.0 | 0.00 | 0.56 | 0.00 | 93 | 1005.2 |
| 20260506041143 | 10 | 225 | 0.0 | 0.0 | 0.00 | 0.56 | 0.00 | 93 | 1005.2 |
| 20260506040143 | 10 | 247 | 0.0 | 0.0 | 0.00 | 0.56 | 0.00 | 93 | 1005.2 |
| 20260506035143 | 10 | 225 | 0.0 | 0.0 | 0.00 | 0.56 | 0.00 | 93 | 1005.1 |
| 20260506034143 | 10 | 67 | 0.0 | 0.0 | 0.00 | 0.56 | 0.00 | 93 | 1005.2 |
| 20260506033143 | 10 | 67 | 0.0 | 0.0 | 0.00 | 0.56 | 0.00 | 93 | 1005.4 |
| 20260506032143 | 10 | 247 | 0.0 | 0.0 | 0.00 | 0.56 | 0.00 | 93 | 1005.4 |
| 20260506031143 | 10 | 45 | 0.0 | 0.0 | 0.00 | 0.56 | 0.00 | 93 | 1005.4 |
| 20260506030143 | 10 | 157 | 0.0 | 0.0 | 0.00 | 0.56 | 0.00 | 93 | 1005.6 |
| 20260506025143 | 10 | 135 | 0.0 | 0.0 | 0.00 | 0.56 | 0.00 | 93 | 1005.5 |
| 20260506024143 | 10 | 270 | 0.0 | 0.0 | 0.00 | 0.56 | 0.00 | 93 | 1005.5 |